Flag for Germany Weather past 2 weeks in Lemgo, North Rhine-Westphalia, Germany

Now
35 °F

Passing clouds.


Feels Like: 32 °F
Forecast: 34 / 46 °F
Wind: 3 mph from Southwest

Location: Bad Lippspringe

Current Time: Mar 4, 2015 at 6:05:34 AM

Latest Report: Mar 4, 2015 at 5:00 AM


Visibility: 6 mi

Pressure: 30.12 "Hg

Humidity: 92%

Dew point: 33 °F

Location of LemgoLocation

Historic Weather in Lemgo — Graph

°F

Lemgo temperature yesterday

Maximum temperature yesterday: 45 °F (at 4:00 PM)
Minimum temperature yesterday: 34 °F (at 9:00 PM)
Average temperature yesterday: 38 °F

Past Weeks' High & Low Weather Summary

 TemperatureHumidityPressure
High51 °F (Mar 1, 3:00 PM)100% (Feb 17, 6:00 PM)30.78 "Hg (Feb 17, 6:00 PM)
Low26 °F (Feb 19, 5:00 AM)44% (Feb 28, 3:00 PM)29.32 "Hg (Feb 21, 7:00 AM)
Average38 °F81%29.94 "Hg
* Reported Feb 17 4:00 AM — Mar 4 4:00 AM, Lemgo, Weather by CustomWeather, © 2015

Note: Actual official high and low records may vary slightly from our data, if they occured in-between our weather recording intervals... More about our weather records

Advertising

Lemgo weather history for previous 24 hours

 ConditionsComfort  
Time TempWeatherWind HumidityBarometerVisibility
4:00 AM
Wed, Mar 4
34 °FLow clouds.2 mph96%30.12 "Hg7 mi
3:00 AM33 °FLow clouds.1 mph98%30.11 "Hg7 mi
2:00 AM33 °FLight snow. Low clouds.1 mph98%30.09 "Hg7 mi
1:00 AM36 °FOvercast.5 mph85%30.06 "Hg15 mi
12:00 AM36 °FFog.1 mph95%30.06 "Hg4 mi
11:00 PM
Tue, Mar 3
36 °FOvercast.2 mph95%30.05 "Hg7 mi
10:00 PM34 °FOvercast.1 mph97%30.03 "Hg14 mi
9:00 PM34 °FFreezing rain. Low clouds.6 mph95%30.02 "Hg4 mi
8:00 PM39 °FOvercast.7 mph86%29.98 "Hg37 mi
7:00 PM40 °FOvercast.7 mph90%29.97 "Hg25 mi
6:00 PM40 °FLight rain. Overcast.7 mph90%29.96 "Hg9 mi
5:00 PM43 °FLight rain. Overcast.9 mph72%29.96 "Hg15 mi
4:00 PM45 °FOvercast.9 mph58%29.94 "Hg43 mi
3:00 PM43 °FLight freezing rain. Overcast.9 mph66%29.97 "Hg28 mi
2:00 PM45 °FOvercast.7 mph60%29.99 "Hg40 mi
1:00 PM44 °FScattered clouds.8 mph65%30.02 "Hg31 mi
12:00 PM44 °FPartly sunny.9 mph67%30.04 "Hg28 mi
11:00 AM42 °FOvercast.7 mph74%30.05 "Hg25 mi
10:00 AM40 °FOvercast.7 mph75%30.06 "Hg25 mi
9:00 AM38 °FOvercast.7 mph79%30.05 "Hg22 mi
8:00 AM37 °FOvercast.6 mph80%30.04 "Hg19 mi
7:00 AM36 °FOvercast.5 mph82%30.04 "Hg43 mi
6:00 AM35 °FPassing clouds.3 mph84%30.03 "Hg43 mi
Weather by CustomWeather, © 2015

See weather overviewHow to use our weather pages